Dewpoint
45 45 45 45 47 49 49 49 49 49 49 48 47 46 46 46 46 46 47 56 59 58 57 58 59 58 57 57 57 57 57 57 57 58 58 58 59 60 61 63 64 65 64
44 44 45 45 48 48 49 49 49 49 49 49 48 47 47 47 47 47 47 51 55 56 57 56 56 56 56 56 56 56 56 56 57 58 59 59 60 60 60 61 61 62 64
43 43 43 44 46 47 49 49 49 49 49 49 48 48 47 46 48 48 49 50 53 57 55 54 54 56 56 56 56 56 55 55 56 56 57 57 58 58 58 58 58 59 60
42 42 42 43 45 46 48 49 48 47 48 49 49 48 46 47 47 47 49 51 50 53 54 54 56 56 55 55 56 56 55 56 56 57 57 58 59 59 60 60 59 60 60
43 43 43 43 43 46 47 46 46 47 47 48 47 47 47 48 49 50 48 49 49 49 51 54 55 53 53 54 54 56 56 57 57 57 57 58 59 58 59 58 59 61 60
42 43 44 43 43 44 45 45 45 46 47 47 46 47 48 48 50 50 48 47 48 49 51 52 54 51 53 52 54 53 54 55 56 57 57 58 58 58 58 59 60 60 61
43 44 44 43 43 42 42 43 45 46 46 47 46 45 47 48 47 47 48 46 47 49 51 51 50 52 53 53 52 51 51 53 55 56 56 57 57 58 58 59 59 60 59
44 45 44 44 44 43 42 43 44 45 45 46 45 45 45 46 44 45 47 46 44 50 50 50 49 51 52 52 52 50 50 51 54 55 55 54 55 57 57 57 60 61 59
45 45 46 46 45 44 43 42 43 44 44 45 45 45 43 42 42 45 45 45 45 47 49 49 49 49 50 50 51 48 48 50 51 53 54 54 52 55 57 59 59 60 59
45 45 46 46 46 45 44 43 41 45 45 44 44 48 46 44 42 41 43 42 45 45 48 49 48 48 48 49 50 47 47 49 50 51 52 52 52 52 56 59 59 60 59
46 46 46 46 46 46 45 44 42 43 46 44 44 44 43 44 44 42 41 42 45 44 46 46 49 49 50 49 48 45 45 47 49 49 50 50 51 51 53 56 58 59 59
44 46 46 47 47 47 46 45 44 43 45 46 44 43 43 43 42 42 40 42 42 44 44 45 49 50 50 48 48 44 43 44 46 48 49 49 48 49 49 52 55 57 58
43 43 45 47 47 47 47 46 45 43 43 45 45 44 44 43 44 44 44 43 43 42 43 44 46 50 48 48 47 44 43 43 44 46 47 46 45 46 47 48 51 53 55
43 44 44 45 46 46 46 46 45 44 43 43 45 46 45 44 43 44 43 42 41 40 40 42 48 50 49 48 47 45 43 42 43 44 44 42 42 44 45 46 47 49 50
42 41 42 43 44 45 45 46 45 45 43 42 43 46 46 45 44 44 44 45 44 39 38 40 43 48 48 47 46 45 43 40 40 42 41 40 41 42 43 43 44 45 46
38 39 40 41 42 43 44 44 45 45 44 43 42 44 46 46 45 44 45 46 46 44 40 40 42 42 45 44 44 45 42 39 40 41 38 39 39 40 41 41 42 43 44
36 36 37 38 40 41 41 42 43 44 44 44 43 42 42 44 45 45 44 44 44 44 41 42 42 42 42 42 42 44 43 40 39 39 36 36 36 39 40 40 39 40 42
35 35 35 36 36 38 38 38 39 40 42 43 43 43 42 41 43 44 45 44 43 43 43 42 41 41 41 42 42 42 42 41 35 35 34 35 36 39 39 38 37 38 42
35 35 35 35 35 36 36 37 37 38 39 41 42 43 42 41 40 41 43 44 44 44 42 41 39 40 39 41 41 40 38 37 37 35 32 32 37 39 38 38 36 36 39
35 35 35 35 35 35 35 36 36 38 39 40 41 42 42 42 41 40 41 42 43 43 41 40 38 37 37 36 35 34 32 35 36 34 30 29 36 39 39 37 34 32 36
34 34 35 34 35 36 37 37 37 37 38 38 39 41 42 43 42 42 40 39 40 41 40 37 35 33 33 32 30 31 33 32 30 33 31 30 29 33 35 35 31 30 32
33 33 33 34 34 35 36 38 39 38 39 39 40 40 41 41 41 43 43 42 41 38 38 36 34 32 31 31 30 29 29 27 21 31 28 26 29 28 31 31 29 31 32
32 32 32 33 33 33 35 37 38 38 38 39 40 40 41 41 40 40 41 42 42 43 42 38 35 34 32 30 27 26 26 27 26 28 25 22 27 26 27 30 30 32 35
32 32 32 33 32 33 34 36 37 37 37 37 38 39 40 40 40 40 39 38 38 40 42 42 41 39 35 33 26 26 26 28 28 28 25 22 26 25 26 26 28 29 37
32 32 32 32 32 32 33 33 36 35 36 35 35 35 36 37 39 39 38 37 37 37 38 39 42 41 40 39 32 28 27 25 24 26 27 23 25 24 25 25 26 31 36
33 34 34 34 34 34 33 34 36 36 35 35 35 35 35 36 37 37 38 37 35 35 37 37 35 36 38 38 37 30 28 27 26 24 28 24 27 24 18 28 26 32 34
Wind_Speed
9 10 11 10 11 10 12 14 14 14 14 15 15 13 11 11 10 8 8 3 2 1 3 5 7 8 9 9 10 11 11 12 12 14 14 15 16 17 17 18 21 26 27
7 8 10 11 10 12 13 13 14 15 16 15 15 14 12 10 9 8 5 2 4 2 5 4 5 6 7 8 9 10 10 11 12 12 13 14 15 16 18 18 20 21 24
6 8 9 10 9 11 12 13 12 13 16 15 14 13 13 15 9 8 6 6 1 6 6 5 5 6 8 9 10 10 10 10 11 12 13 14 16 17 18 19 21 23 24
5 7 9 9 9 11 11 10 13 15 15 16 14 14 15 14 8 8 5 7 9 6 5 5 7 8 11 10 9 8 9 11 12 13 13 14 15 16 19 20 21 22 25
5 6 8 8 9 10 10 7 9 12 15 14 14 15 16 7 6 5 6 8 8 6 6 3 11 11 11 10 11 13 13 14 15 14 15 18 15 18 20 21 25 27 29
3 4 7 8 8 9 10 8 7 11 12 14 16 16 16 6 4 2 3 6 6 4 4 7 5 9 8 9 10 13 14 16 15 16 17 19 18 20 23 24 26 27 30
5 4 8 8 8 8 10 9 4 9 12 11 12 14 10 7 1 3 2 3 2 4 8 9 10 7 5 8 10 12 16 16 17 18 17 20 22 24 25 26 28 28 26
7 6 7 8 8 8 10 9 8 6 9 12 7 9 6 2 9 5 4 2 3 6 8 8 5 6 6 5 6 10 14 16 17 18 19 21 23 25 26 28 34 27 20
7 7 8 9 9 8 8 8 7 3 5 9 8 3 5 4 11 5 7 8 10 5 6 5 3 3 4 4 5 6 10 14 16 17 19 20 21 25 28 30 31 24 8
10 10 8 9 10 9 9 8 6 3 3 7 7 4 4 5 3 8 7 14 12 14 3 3 3 3 2 2 4 5 9 12 14 15 17 19 22 24 27 29 29 28 20
12 11 9 9 10 10 9 8 7 9 5 5 4 5 7 8 8 8 12 11 14 16 9 6 5 2 3 1 4 6 11 14 14 15 16 18 21 22 24 27 27 26 26
9 9 9 10 11 11 11 10 9 8 9 8 7 7 9 7 7 7 11 11 14 11 10 11 3 4 3 2 4 5 10 11 13 14 14 15 17 19 20 21 23 24 23
10 10 8 7 10 12 13 11 10 10 10 10 11 11 10 10 10 11 11 12 11 13 10 11 5 5 5 1 2 5 8 7 12 13 13 14 15 16 17 18 19 21 21
11 9 9 10 11 12 12 10 10 12 12 13 13 11 12 11 10 11 10 11 14 10 13 8 2 4 5 4 3 5 7 2 8 10 11 13 13 14 14 15 16 17 18
11 11 10 11 13 13 13 12 13 14 13 14 14 14 14 13 10 11 11 10 7 8 10 4 1 2 2 1 3 6 6 3 5 7 9 10 11 12 12 13 14 14 15
9 11 12 13 14 13 13 12 14 14 14 14 13 14 14 14 14 12 12 10 10 12 10 6 3 8 6 5 9 7 6 5 7 5 5 7 9 9 9 11 12 13 13
12 13 14 14 13 13 14 14 14 14 16 16 15 16 17 14 14 14 13 12 12 12 17 14 9 7 13 7 7 9 7 6 5 4 3 6 7 6 6 8 9 10 10
13 13 13 13 14 14 14 14 16 15 15 16 17 17 18 14 16 16 14 15 15 15 16 20 10 9 9 6 7 10 8 8 5 5 3 5 7 4 3 4 6 7 8
14 14 14 15 15 13 13 14 14 15 16 17 17 17 18 16 17 16 16 16 15 14 15 15 15 6 8 7 6 5 6 9 8 8 6 6 6 4 3 2 4 5 5
12 13 14 15 15 16 15 14 14 14 14 14 16 16 16 16 17 16 16 17 16 16 14 15 15 15 8 6 4 8 11 4 8 6 7 6 5 5 4 4 4 4 4
12 13 12 12 14 13 12 14 11 13 15 16 15 15 14 17 18 17 13 14 15 16 15 15 14 10 10 10 12 5 6 6 9 8 6 6 7 8 9 9 7 6 5
13 11 13 13 14 12 12 11 10 13 14 15 16 15 13 13 12 18 19 18 16 14 16 15 14 17 16 12 10 11 8 4 5 1 2 5 8 10 10 10 9 7 7
13 14 14 13 14 14 15 14 12 11 14 15 16 16 14 11 12 12 14 15 17 18 18 13 18 18 16 13 9 8 7 7 7 5 2 8 3 12 9 9 10 8 9
13 14 15 14 14 15 16 13 11 12 13 15 17 15 13 11 8 9 11 13 12 12 14 15 18 20 16 9 9 9 9 6 5 6 5 6 2 6 4 7 9 9 10
13 15 14 15 15 16 15 16 9 12 14 15 13 11 9 8 8 6 6 10 12 13 11 15 19 18 15 14 9 8 8 7 7 5 9 6 3 4 3 5 6 10 10
15 15 16 16 15 14 13 5 7 10 13 12 13 10 13 9 5 5 7 9 13 12 10 10 8 11 12 11 13 14 11 12 9 5 7 8 4 3 3 1 2 3 6
Wind_Direction
360 351 342 343 341 353 342 338 328 327 324 322 312 311 315 306 304 299 315 187 134 64 29 342 316 314 315 317 317 316 314 312 312 311 309 307 304 301 299 292 279 262 254
2 351 334 339 346 357 335 330 328 332 327 322 319 322 318 318 328 338 300 267 188 102 67 28 2 345 340 333 324 320 320 319 321 328 325 320 314 310 305 298 292 288 272
360 340 336 336 352 343 328 324 335 345 332 324 321 328 335 328 323 326 352 16 36 122 92 69 36 18 6 351 342 334 334 331 328 325 323 316 310 306 301 295 291 290 286
355 344 338 339 345 337 326 350 354 342 330 325 333 330 320 306 332 319 4 65 47 77 99 83 69 40 18 1 352 343 351 347 336 333 325 319 306 305 303 292 288 283 277
346 343 331 327 342 328 325 356 351 337 330 328 335 324 309 310 345 330 60 78 76 41 30 71 91 53 24 359 3 3 0 352 346 335 330 330 340 334 326 311 300 287 285
294 330 315 320 322 325 329 336 353 336 335 334 331 309 305 295 269 40 59 103 104 87 43 52 139 24 12 358 8 358 356 356 347 339 341 343 344 339 327 315 310 289 283
304 311 309 316 322 322 320 326 336 348 337 336 332 335 311 227 185 151 167 71 129 127 77 75 35 354 350 4 7 2 3 357 350 351 346 349 354 341 329 325 317 311 292
272 284 300 306 307 316 321 327 342 350 330 346 336 326 330 318 2 310 104 24 28 97 88 72 56 8 11 15 11 8 1 358 354 357 358 359 351 343 339 336 330 310 279
254 266 270 281 288 293 296 310 317 0 320 323 344 348 340 330 336 351 14 357 331 66 123 115 125 46 0 360 3 22 3 359 360 360 356 357 351 348 348 351 352 351 277
274 262 264 269 277 280 283 288 312 294 266 317 335 72 314 295 330 322 328 335 14 5 81 204 217 140 346 336 337 12 355 1 359 358 355 356 355 353 353 358 9 20 20
265 251 242 259 273 277 271 273 284 284 249 247 260 301 297 290 274 266 295 313 334 335 322 339 251 168 138 3 334 356 353 354 357 356 355 356 356 358 359 3 9 18 29
304 275 240 236 250 265 271 268 261 263 266 253 248 242 263 275 286 287 291 297 299 302 333 305 245 168 156 324 316 3 350 346 354 356 351 355 357 2 3 7 12 16 26
305 303 302 267 252 252 253 250 255 258 261 253 246 242 244 257 267 275 285 292 300 315 305 283 259 179 156 281 305 351 337 327 353 350 352 356 357 3 9 13 16 21 24
291 292 294 292 279 270 263 257 251 255 256 260 253 246 250 255 272 270 274 287 300 297 300 283 254 188 187 188 274 326 335 6 358 345 350 351 355 1 11 18 23 26 26
296 297 293 283 280 276 269 257 251 254 255 257 257 248 245 245 243 258 260 258 258 292 308 294 231 159 189 323 339 292 305 303 337 332 343 345 352 0 11 17 24 29 35
305 308 299 293 289 283 275 263 258 253 253 258 257 256 249 244 237 237 245 242 233 248 263 236 286 324 292 334 335 273 278 298 305 286 335 340 346 356 10 19 25 28 35
317 311 305 299 292 290 288 282 271 259 255 257 251 250 254 250 249 244 234 234 242 246 260 275 274 284 298 281 305 295 291 268 292 244 312 319 327 336 359 18 29 38 48
313 308 306 302 297 292 285 284 285 279 271 266 261 254 253 251 248 246 242 240 235 238 249 268 275 282 287 266 261 283 279 283 243 246 281 305 302 293 318 15 27 37 62
310 312 309 302 300 297 296 290 284 284 284 277 267 259 256 253 251 246 241 242 245 241 240 255 272 263 283 286 285 281 288 295 255 238 251 272 286 265 272 329 7 21 48
309 307 303 301 302 300 295 291 284 285 289 281 279 271 262 251 251 252 245 240 240 241 240 249 262 271 265 271 267 275 292 291 274 252 234 247 262 269 239 259 296 328 346
304 302 305 310 306 303 300 295 304 305 300 294 289 279 271 259 249 246 249 253 247 242 238 243 256 261 261 274 273 265 248 279 291 246 240 261 240 242 250 252 255 257 267
307 310 310 306 304 298 297 304 304 303 296 290 287 283 277 276 277 260 251 248 243 246 243 237 249 257 261 258 261 253 248 289 307 240 240 284 224 240 239 227 227 225 238
313 314 312 312 309 307 307 305 307 302 293 285 283 283 283 273 270 263 257 257 260 252 243 242 248 247 257 246 240 234 237 235 241 261 219 287 228 239 250 232 206 212 228
312 312 312 311 310 308 306 309 310 309 298 291 284 278 276 280 277 283 260 258 260 255 247 240 238 252 246 249 230 222 222 227 266 254 185 266 245 240 268 220 213 222 224
307 306 303 306 304 301 299 304 310 314 308 304 301 302 288 284 289 328 291 276 280 281 273 250 235 240 239 244 216 182 215 236 270 254 203 212 242 248 254 246 249 222 225
299 300 299 295 295 304 309 305 321 318 310 312 315 312 306 278 263 304 288 280 279 279 286 285 280 257 247 243 212 208 212 232 228 276 216 199 198 201 286 305 281 233 227